Temperature
25 25 24 24 25 25 25 24 24 24 25 24 23 23 23 23 22 22 22 22 21 21 20 19 19 19 18 18 18 17 17 17 17 17 17 16 16 16 16 16 16 15 15 15
25 24 25 25 25 25 24 24 24 24 25 24 23 23 23 23 22 22 22 22 21 21 20 19 19 19 18 18 17 17 17 17 16 16 16 16 16 16 15 15 15 15 15 15
24 24 25 25 24 24 24 24 24 24 24 24 23 22 23 23 23 22 22 22 21 21 20 19 19 18 18 17 17 17 17 16 16 16 16 16 16 15 15 15 15 15 15 15
24 24 24 24 24 24 23 24 24 23 23 22 23 21 22 23 22 22 22 21 21 21 20 19 18 18 18 17 17 17 17 16 16 16 16 15 15 15 15 15 15 15 15 15
24 24 24 23 24 24 23 24 24 23 23 22 23 22 22 23 22 22 22 21 21 20 20 19 18 18 17 17 17 16 16 16 16 16 15 15 15 15 14 14 14 14 14 14
24 25 24 24 24 24 24 23 23 23 23 21 23 22 21 22 22 22 22 21 21 20 19 19 18 18 17 17 16 16 16 16 16 15 15 15 15 14 14 14 14 14 14 14
23 24 24 24 23 23 23 22 21 21 21 21 23 22 22 22 23 23 22 21 21 20 19 18 18 17 17 16 16 16 16 15 15 15 15 15 14 14 14 14 14 13 13 13
23 23 23 23 23 22 23 22 21 20 21 22 23 22 22 23 23 22 22 21 20 20 19 18 17 17 16 16 16 16 15 15 15 15 14 14 14 14 14 13 13 13 13 13
23 23 24 24 24 23 22 22 23 21 22 21 22 22 21 22 22 22 21 20 20 19 19 18 17 17 16 16 15 15 15 15 14 14 14 14 14 14 13 13 13 13 13 13
23 22 23 24 23 23 23 22 22 21 20 20 21 22 21 21 21 21 21 20 19 19 18 17 17 16 16 15 15 15 14 14 14 14 14 14 14 13 13 13 13 13 13 12
23 22 22 22 22 22 22 22 22 21 21 20 20 20 22 21 21 21 21 20 19 18 18 17 17 16 16 15 15 15 14 14 14 14 14 14 13 13 13 13 12 12 12 12
23 22 21 22 23 23 22 22 21 20 20 20 19 20 22 22 21 21 21 20 19 18 18 17 16 16 15 15 15 15 14 14 14 13 13 13 13 13 13 12 12 12 12 12
21 21 20 21 21 21 21 21 21 21 20 19 19 19 22 21 21 21 20 20 19 18 17 17 16 15 15 15 14 14 14 14 13 13 13 13 13 12 12 12 12 12 12 11
20 21 20 20 20 21 21 21 21 20 19 19 19 20 20 20 20 20 19 19 18 17 17 16 15 15 14 14 14 14 14 13 13 13 13 12 12 12 12 12 11 11 11 11
21 20 21 21 21 21 21 20 20 20 20 19 19 19 20 20 19 19 19 18 18 17 16 16 15 14 14 14 14 13 13 13 13 13 12 12 12 11 11 11 11 11 11 10
21 20 20 20 21 21 20 20 20 20 20 20 19 19 20 20 19 19 18 17 17 16 16 15 15 14 14 13 13 13 13 13 12 12 12 12 11 11 11 11 10 10 10 10
20 20 19 19 21 20 19 20 20 19 19 19 18 18 19 18 18 18 17 16 16 15 15 14 14 14 13 13 13 12 12 12 12 12 11 11 11 10 10 10 10 10 10 10
20 20 19 19 19 18 19 20 20 19 18 19 18 18 18 18 17 17 16 16 15 15 14 14 13 13 13 12 12 12 12 12 11 11 11 10 10 10 10 10 9 9 9 9
20 19 18 18 18 18 19 19 19 18 17 18 18 18 17 17 17 16 16 15 15 14 14 13 13 13 12 12 12 11 11 11 11 10 10 10 10 9 9 9 9 9 9 8
19 19 18 18 17 17 18 18 18 18 16 17 17 17 17 16 15 15 15 14 14 14 13 13 12 12 12 11 11 11 11 10 10 10 10 9 9 9 9 9 8 8 8 8
18 17 17 17 16 17 18 18 18 16 16 17 17 16 16 15 15 15 14 14 13 13 13 12 12 11 11 11 10 10 10 10 9 9 9 9 9 8 8 8 8 8 7 7
18 17 17 17 16 16 17 17 16 16 16 16 16 15 15 15 14 14 13 13 13 12 12 12 11 11 10 10 10 10 9 9 9 9 8 8 8 8 7 7 7 7 7 7
18 17 17 17 16 17 16 16 16 16 15 15 15 14 14 14 14 13 13 12 12 12 11 11 11 10 10 10 9 9 9 9 8 8 8 7 7 7 7 7 7 6 6 6
18 18 17 16 17 16 16 16 15 15 15 14 14 14 13 13 13 13 12 12 11 11 11 10 10 10 9 9 9 9 8 8 8 7 7 7 7 6 6 6 6 6 6 5
16 16 16 15 16 16 15 15 15 14 14 14 13 13 13 12 12 12 12 11 11 11 10 10 10 9 9 9 8 8 8 7 7 7 6 6 6 6 6 6 5 5 5 5
16 15 15 14 15 15 15 14 14 14 13 13 13 12 12 12 11 11 11 11 10 10 10 9 9 9 8 8 8 8 7 7 7 6 6 6 5 5 5 5 5 5 4 4
Wind_Speed
3 2 1 1 2 3 2 1 1 2 4 3 4 4 5 7 6 5 4 4 4 4 5 5 5 4 3 2 3 4 3 3 3 3 2 2 2 2 2 2 4 5 5 5
3 1 1 1 2 3 3 3 2 2 4 4 4 5 5 7 6 4 3 3 4 4 5 5 4 4 3 3 3 3 3 3 4 2 2 1 1 1 2 2 3 5 5 5
1 2 2 1 2 4 5 4 3 2 3 5 6 6 6 8 7 5 4 3 3 4 5 6 5 4 3 3 3 2 3 3 3 3 2 2 2 2 2 2 1 3 4 5
0 2 1 2 3 5 4 3 4 6 6 5 6 4 3 6 7 6 5 4 3 3 4 5 5 4 4 3 2 2 3 3 3 3 2 2 2 2 1 1 1 1 3 4
1 1 1 3 3 5 4 5 7 8 8 8 8 6 3 5 6 6 5 4 3 3 4 5 5 4 4 4 3 2 2 3 3 3 2 1 2 2 2 2 2 2 2 3
2 1 2 3 3 3 4 7 9 9 7 7 8 5 2 2 4 5 4 4 4 4 4 4 5 5 4 3 3 3 3 3 2 2 2 2 3 2 2 2 2 1 1 1
5 5 3 1 3 3 5 6 4 4 5 4 2 2 1 4 5 4 4 3 3 4 5 5 5 4 4 4 3 3 3 2 1 1 2 2 2 1 1 1 1 1 1 1
5 4 5 3 3 4 5 6 4 4 3 3 2 2 4 5 6 5 5 4 3 4 4 5 5 4 4 5 4 3 3 2 1 1 1 1 2 1 1 0 1 0 0 0
5 2 4 4 3 5 4 4 5 6 8 6 3 3 5 5 5 4 5 4 4 3 4 5 5 4 4 5 4 3 3 2 1 1 1 1 1 1 1 0 1 0 1 0
6 4 2 3 4 5 6 6 4 4 4 5 4 3 2 5 3 4 4 3 3 3 3 3 4 4 3 4 4 3 3 3 2 1 1 1 1 1 1 1 1 1 1 1
6 6 4 4 4 4 4 5 5 4 5 4 4 1 4 4 3 3 3 3 3 3 3 2 2 3 3 3 3 3 3 3 2 1 0 1 1 1 1 1 0 1 1 1
4 5 7 6 3 2 3 5 5 4 5 5 5 1 4 5 4 3 2 2 3 3 2 2 3 3 2 2 2 2 3 3 2 1 1 1 1 0 0 0 1 1 1 1
5 5 7 4 3 3 4 5 6 6 6 6 6 2 4 4 3 2 2 2 3 2 1 2 3 3 2 1 1 1 2 2 2 1 1 0 0 0 0 1 1 2 1 1
4 7 7 7 6 4 5 5 6 6 6 7 7 6 3 3 3 2 2 3 2 1 2 2 3 2 1 1 1 1 1 1 1 1 1 1 1 0 0 1 2 2 2 2
4 8 10 10 9 8 7 8 8 8 8 9 9 8 7 4 3 3 3 3 2 1 2 2 2 1 1 1 1 1 1 1 1 1 1 0 1 1 0 1 2 2 2 2
6 8 10 12 10 9 10 10 10 9 9 9 9 9 5 4 4 4 3 3 3 2 2 2 1 0 1 1 1 1 1 1 1 1 1 1 1 1 1 1 1 2 2 2
6 8 9 9 9 10 9 6 5 5 5 6 6 5 5 5 5 5 4 4 4 4 3 3 2 1 2 2 1 1 0 0 1 0 1 0 0 1 1 2 1 2 2 2
8 8 6 8 8 9 1 4 3 1 3 4 4 5 5 5 4 3 3 4 4 3 3 3 3 2 2 1 1 1 1 1 1 1 1 1 0 1 1 1 1 1 1 2
6 6 5 5 7 7 3 2 2 3 3 3 4 5 5 4 4 3 4 5 4 4 3 2 3 2 2 2 2 2 1 1 1 1 1 2 1 1 1 1 2 2 2 2
5 6 6 6 7 6 1 4 4 2 2 3 4 4 4 4 3 3 4 4 4 4 4 3 2 3 2 2 2 2 1 1 1 2 2 2 1 1 1 1 2 2 1 2
5 6 8 8 8 4 2 3 2 1 2 5 6 5 4 4 3 3 4 4 4 4 3 3 2 2 2 2 2 2 2 1 1 2 2 2 2 1 1 1 1 1 2 2
5 4 6 6 7 4 3 2 1 3 4 5 5 6 5 5 4 3 3 3 3 3 3 3 2 2 1 1 1 2 2 2 2 2 2 2 2 2 2 1 1 1 2 2
4 3 3 3 2 1 2 2 3 5 5 5 5 5 6 6 5 3 3 2 2 2 2 2 1 2 1 1 1 1 2 2 2 2 2 2 2 1 1 1 1 1 1 1
3 3 4 5 3 1 0 2 3 4 4 5 4 5 5 6 6 4 3 3 3 2 2 2 1 2 2 1 1 1 2 2 2 2 2 2 2 2 2 1 1 1 1 1
4 3 4 6 5 3 2 2 3 4 4 4 4 5 5 6 6 5 4 4 3 3 2 2 2 1 2 1 0 1 1 1 2 2 2 1 1 1 1 1 1 1 1 1
6 5 5 4 4 5 5 4 4 4 4 5 5 5 5 5 6 6 5 3 3 2 2 2 2 2 2 1 1 1 1 1 2 2 2 1 1 1 1 1 2 3 2 2
Wind_Direction
200 216 205 238 280 309 300 251 206 150 150 198 221 211 179 172 189 204 201 191 174 159 138 128 132 125 117 98 89 90 81 76 66 43 47 53 55 73 59 56 40 40 42 45
202 223 336 18 356 300 285 269 228 183 177 217 232 234 198 177 187 196 215 201 177 162 144 135 138 128 122 105 88 92 86 79 80 68 55 66 81 89 89 59 45 43 39 38
241 60 41 312 270 264 258 275 294 287 245 227 236 244 217 176 176 177 209 221 190 174 161 152 147 135 122 113 104 98 100 94 87 84 67 50 51 45 56 54 47 39 39 38
182 70 329 281 276 282 283 320 301 277 269 255 232 258 238 173 173 175 182 196 194 173 159 147 146 140 131 118 109 102 88 84 81 81 70 65 63 53 48 47 57 48 49 45
233 144 269 284 296 302 325 318 286 271 268 274 257 257 232 178 177 181 177 180 180 161 146 147 145 136 131 124 116 103 85 77 83 90 90 78 65 58 50 54 57 57 50 49
256 208 260 295 294 302 303 278 265 254 255 259 251 245 240 182 162 159 158 166 168 159 144 136 128 130 123 114 121 116 95 74 73 93 105 95 85 74 54 46 39 31 43 33
217 197 182 280 279 236 267 279 266 237 221 241 213 229 156 96 90 102 110 116 141 145 142 137 133 138 138 137 131 123 114 110 93 82 86 92 92 83 75 59 52 31 31 21
255 213 175 198 267 280 264 266 279 292 283 293 220 224 112 103 93 90 98 96 104 125 140 138 135 139 143 148 157 145 134 130 129 113 87 93 101 97 98 151 106 77 342 205
295 274 159 184 231 275 285 267 282 291 289 284 246 157 131 133 120 106 93 86 88 97 125 134 137 142 146 152 156 154 153 146 140 119 95 87 92 100 115 94 76 49 300 342
302 297 201 188 221 232 261 295 289 277 296 284 263 242 166 130 125 123 113 106 98 94 95 118 140 145 144 150 150 165 171 157 143 140 157 117 99 72 72 69 52 336 336 356
289 278 244 202 219 248 235 255 269 276 272 288 299 3 58 109 118 125 118 112 108 101 101 109 124 135 137 134 147 170 165 148 150 178 167 98 81 50 58 54 289 292 320 336
280 280 270 246 200 220 263 269 276 277 285 285 283 302 83 83 78 72 81 89 96 99 109 115 122 118 117 127 155 183 160 148 149 172 172 124 113 71 42 295 280 274 262 257
317 274 278 250 182 203 239 258 272 280 285 283 281 282 97 73 77 73 53 64 84 95 104 110 115 122 129 132 123 109 135 145 151 151 169 172 179 177 321 309 309 315 321 308
310 268 270 279 298 303 271 266 265 263 265 276 279 291 324 21 35 33 50 66 70 72 79 88 101 109 133 142 139 119 98 119 153 155 194 215 216 195 300 312 301 303 306 299
268 270 276 282 287 295 288 278 271 264 266 273 284 296 316 349 12 25 38 43 45 34 54 66 82 106 123 152 165 129 117 130 173 178 198 252 3 13 336 305 294 299 302 298
262 273 280 279 275 277 278 272 265 265 273 274 281 290 316 352 14 19 28 34 24 13 29 35 34 99 224 225 211 167 176 176 152 184 140 73 32 355 332 298 305 319 316 313
252 265 274 277 281 283 272 281 267 269 285 290 290 316 356 15 15 16 25 33 23 12 14 7 335 266 242 249 239 229 214 228 143 136 130 95 349 328 312 313 317 311 306 298
269 270 271 276 279 266 274 49 42 338 323 323 333 353 357 2 11 8 55 35 9 5 9 360 348 343 332 326 358 53 74 38 61 44 11 13 357 328 318 313 298 293 295 281
262 272 274 269 268 269 263 10 354 300 299 352 342 341 351 358 338 339 25 21 2 3 3 359 349 344 350 10 16 27 36 33 26 10 347 339 333 318 305 293 288 289 290 281
257 263 264 270 271 272 335 36 19 327 274 0 355 351 354 345 317 330 0 11 5 3 1 357 359 0 13 27 22 7 356 17 10 352 331 329 347 347 308 282 292 303 287 274
230 240 245 258 264 269 353 50 25 281 354 17 10 -0 347 326 326 345 5 9 0 0 2 3 13 13 5 30 27 0 347 342 346 356 351 340 353 346 338 338 352 331 314 300
253 250 247 252 253 259 56 65 358 7 27 13 6 358 346 340 345 353 350 355 351 347 352 355 354 351 353 24 30 0 345 355 3 6 357 346 345 336 356 21 351 324 320 305
243 262 288 272 261 21 74 34 18 14 355 356 357 353 341 332 330 330 327 325 320 324 326 330 336 321 327 19 34 5 352 6 358 353 348 343 346 343 352 357 348 341 340 324
266 282 274 280 272 299 296 3 356 347 335 338 339 332 326 320 316 312 304 296 297 296 293 299 299 302 319 355 22 12 2 356 343 325 325 334 341 341 354 2 11 358 347 336
300 300 272 267 286 312 326 330 322 322 320 323 323 318 313 309 305 301 291 283 277 274 271 271 264 272 290 311 16 18 358 340 318 310 313 317 341 348 350 358 344 311 272 251
270 276 265 266 308 307 311 319 320 313 308 308 311 312 312 310 309 307 300 294 285 282 284 277 274 285 278 277 332 17 8 346 322 310 315 332 355 350 318 299 322 337 303 307
Height
1505 1506 1509 1507 1505 1505 1507 1510 1514 1512 1510 1514 1517 1517 1517 1519 1521 1522 1523 1524 1525 1527 1529 1530 1531 1532 1533 1533 1534 1534 1534 1534 1533 1533 1533 1533 1533 1532 1532 1532 1531 1531 1531 1530
1506 1509 1506 1504 1505 1506 1508 1512 1513 1511 1508 1512 1515 1515 1513 1515 1517 1519 1521 1522 1523 1525 1527 1528 1530 1531 1532 1532 1533 1533 1533 1533 1533 1533 1533 1533 1533 1532 1532 1532 1531 1531 1530 1530
1508 1508 1506 1507 1508 1509 1510 1512 1512 1513 1510 1509 1513 1517 1511 1511 1514 1517 1518 1520 1521 1523 1525 1526 1528 1529 1530 1531 1532 1532 1533 1532 1532 1532 1532 1532 1532 1532 1531 1531 1531 1530 1530 1529
1506 1507 1507 1509 1510 1509 1513 1508 1509 1511 1516 1517 1513 1525 1513 1508 1511 1513 1516 1518 1519 1521 1523 1524 1526 1527 1529 1530 1531 1531 1532 1532 1531 1531 1531 1531 1531 1531 1530 1530 1530 1529 1529 1529
1508 1507 1509 1511 1510 1509 1510 1508 1508 1510 1513 1515 1511 1517 1515 1506 1511 1511 1513 1515 1517 1519 1521 1523 1524 1526 1527 1528 1529 1530 1530 1531 1531 1530 1530 1530 1530 1530 1530 1529 1529 1529 1528 1528
1507 1506 1508 1509 1508 1509 1509 1510 1508 1507 1512 1524 1511 1515 1518 1508 1507 1508 1510 1513 1515 1517 1519 1521 1523 1524 1525 1527 1527 1528 1529 1529 1530 1530 1529 1529 1529 1529 1529 1528 1528 1528 1527 1527
1509 1507 1507 1509 1510 1510 1511 1517 1525 1525 1526 1521 1504 1511 1513 1504 1503 1506 1509 1511 1514 1516 1518 1520 1521 1522 1523 1524 1525 1526 1527 1528 1528 1528 1528 1528 1528 1528 1528 1527 1527 1526 1526 1526
1513 1514 1508 1508 1511 1513 1511 1515 1529 1534 1528 1517 1507 1513 1510 1503 1504 1506 1509 1511 1513 1515 1516 1518 1520 1521 1522 1523 1524 1525 1526 1526 1527 1527 1527 1527 1527 1527 1526 1526 1525 1525 1525 1525
1512 1512 1504 1506 1508 1510 1513 1513 1510 1519 1517 1520 1512 1507 1508 1504 1505 1507 1509 1511 1513 1514 1515 1517 1518 1520 1521 1522 1522 1523 1524 1525 1525 1525 1525 1525 1525 1525 1525 1525 1524 1524 1523 1523
1508 1514 1507 1505 1507 1508 1510 1510 1514 1520 1528 1529 1516 1511 1511 1508 1507 1507 1510 1511 1513 1514 1515 1516 1517 1518 1519 1520 1521 1522 1522 1523 1523 1524 1524 1524 1523 1523 1523 1523 1522 1522 1522 1521
1508 1513 1511 1508 1510 1511 1511 1513 1513 1515 1516 1527 1529 1521 1503 1505 1505 1507 1509 1511 1512 1513 1515 1516 1516 1517 1518 1519 1520 1520 1520 1521 1521 1522 1522 1522 1522 1521 1521 1521 1520 1520 1519 1519
1508 1511 1513 1507 1504 1504 1508 1511 1513 1524 1522 1517 1523 1523 1501 1503 1504 1507 1508 1510 1511 1513 1514 1514 1515 1516 1517 1517 1518 1518 1519 1519 1519 1519 1520 1520 1520 1519 1519 1519 1518 1518 1517 1517
1511 1514 1519 1515 1514 1509 1509 1509 1510 1513 1517 1520 1524 1521 1503 1504 1505 1507 1508 1509 1510 1512 1512 1513 1513 1514 1515 1516 1516 1517 1517 1517 1517 1517 1517 1517 1517 1517 1516 1516 1515 1515 1514 1514
1513 1513 1518 1523 1516 1510 1510 1510 1509 1513 1521 1520 1517 1514 1507 1505 1506 1507 1508 1509 1510 1511 1511 1512 1512 1513 1514 1514 1515 1515 1515 1515 1515 1515 1515 1515 1515 1514 1514 1513 1513 1512 1512 1511
1512 1513 1510 1508 1505 1505 1507 1508 1508 1511 1512 1516 1514 1511 1508 1506 1506 1507 1508 1509 1510 1510 1511 1511 1511 1512 1512 1513 1513 1513 1513 1513 1513 1513 1513 1512 1512 1511 1511 1510 1510 1509 1509 1508
1510 1511 1509 1508 1503 1503 1505 1505 1505 1506 1507 1508 1508 1509 1505 1505 1506 1506 1507 1508 1509 1510 1510 1510 1510 1510 1511 1511 1511 1511 1510 1510 1510 1510 1510 1509 1509 1508 1507 1507 1506 1506 1505 1505
1509 1510 1513 1512 1503 1503 1508 1502 1503 1505 1505 1507 1510 1509 1505 1506 1507 1507 1508 1508 1509 1509 1509 1509 1509 1509 1508 1508 1508 1508 1508 1508 1508 1507 1507 1506 1506 1505 1504 1504 1503 1503 1502 1502
1507 1508 1510 1511 1510 1518 1507 1499 1500 1503 1504 1504 1505 1506 1507 1507 1508 1508 1508 1508 1509 1509 1508 1508 1507 1507 1507 1507 1506 1506 1506 1506 1505 1504 1504 1503 1503 1502 1501 1500 1500 1499 1499 1499
1505 1508 1511 1512 1514 1509 1503 1500 1501 1503 1505 1504 1504 1505 1506 1507 1507 1507 1507 1508 1508 1508 1508 1507 1506 1506 1505 1505 1504 1504 1503 1503 1503 1502 1501 1500 1500 1499 1498 1497 1497 1496 1496 1496
1504 1505 1511 1511 1516 1516 1507 1502 1500 1503 1508 1503 1503 1504 1505 1505 1508 1508 1507 1507 1507 1507 1506 1505 1505 1504 1503 1503 1502 1502 1501 1501 1500 1500 1499 1498 1497 1496 1495 1494 1494 1493 1493 1493
1508 1509 1511 1513 1514 1509 1503 1501 1502 1512 1512 1505 1504 1505 1506 1506 1507 1507 1505 1505 1505 1505 1504 1504 1503 1503 1502 1501 1501 1500 1500 1499 1498 1498 1497 1496 1495 1493 1492 1492 1491 1491 1490 1490
1505 1507 1508 1509 1513 1513 1503 1503 1506 1508 1506 1505 1505 1506 1506 1505 1505 1504 1504 1503 1503 1503 1502 1502 1501 1501 1500 1500 1499 1498 1498 1497 1496 1495 1494 1493 1492 1491 1490 1489 1489 1488 1487 1487
1500 1503 1504 1505 1508 1504 1503 1504 1505 1505 1505 1505 1505 1505 1505 1504 1503 1503 1502 1502 1501 1501 1500 1499 1499 1498 1498 1497 1497 1496 1495 1494 1493 1492 1491 1490 1490 1489 1488 1487 1486 1485 1484 1484
1498 1498 1500 1502 1501 1502 1503 1503 1504 1504 1505 1504 1504 1504 1503 1502 1501 1500 1500 1499 1499 1498 1497 1496 1496 1495 1495 1494 1494 1493 1493 1492 1491 1490 1489 1488 1487 1486 1486 1485 1484 1483 1482 1481
1500 1499 1500 1501 1501 1501 1501 1502 1502 1502 1502 1502 1502 1502 1501 1500 1499 1498 1497 1496 1495 1495 1494 1493 1493 1492 1492 1491 1491 1490 1490 1489 1488 1487 1487 1486 1485 1484 1483 1482 1482 1480 1480 1479
1500 1500 1501 1501 1501 1501 1501 1500 1500 1500 1500 1500 1499 1499 1498 1498 1496 1495 1494 1493 1492 1491 1491 1490 1490 1489 1489 1488 1488 1487 1487 1486 1485 1484 1484 1483 1482 1481 1481 1480 1479 1478 1477 1476